Time,TemperatureF,DewpointF,PressureIn,WindDirection,WindDirectionDegrees,WindSpeedMPH,WindSpeedGustMPH,Humidity,HourlyPrecipIn,Conditions,Clouds,dailyrainin,SoftwareType,DateUTC
2013-01-10 00:00:00,33.8,33.8,30.48,WSW,249,0.0,0.0,100,0.00,,FEW250,0.00,VWS V14.01,2013-01-10 05:00:00,
2013-01-10 00:01:00,33.8,33.8,30.48,WSW,249,0.0,0.0,100,0.00,,FEW250,0.00,VWS V14.01,2013-01-10 05:01:00,
2013-01-10 00:02:00,33.8,33.8,30.48,WSW,249,0.0,0.0,100,0.00,,FEW250,0.00,VWS V14.01,2013-01-10 05:02:00,
2013-01-10 00:03:00,33.8,33.8,30.48,WSW,249,0.0,0.0,100,0.00,,FEW250,0.00,VWS V14.01,2013-01-10 05:03:00,
2013-01-10 00:08:00,33.8,33.8,30.48,WSW,249,0.0,0.0,100,0.00,,FEW250,0.00,VWS V14.01,2013-01-10 05:08:00,
2013-01-10 00:13:00,33.8,33.8,30.48,WSW,249,0.0,0.0,100,0.00,,FEW250,0.00,VWS V14.01,2013-01-10 05:13:00,
2013-01-10 00:18:00,33.8,33.8,30.48,WSW,249,0.0,0.0,100,0.00,,FEW250,0.00,VWS V14.01,2013-01-10 05:18:00,
2013-01-10 00:23:00,33.8,33.8,30.48,WSW,249,0.0,0.0,100,0.00,,FEW250,0.00,VWS V14.01,2013-01-10 05:23:00,
2013-01-10 00:28:00,33.6,33.6,30.48,WSW,249,0.0,0.0,100,0.00,,FEW250,0.00,VWS V14.01,2013-01-10 05:28:00,
2013-01-10 00:33:00,33.6,33.6,30.48,WSW,249,0.0,0.0,100,0.00,,FEW250,0.00,VWS V14.01,2013-01-10 05:33:00,
2013-01-10 00:39:00,33.6,33.6,30.48,WSW,249,0.0,0.0,100,0.00,,FEW250,0.00,VWS V14.01,2013-01-10 05:39:00,
2013-01-10 00:44:00,33.4,33.4,30.48,WSW,250,0.0,0.0,100,0.00,,FEW250,0.00,VWS V14.01,2013-01-10 05:44:00,
2013-01-10 00:49:00,33.3,33.3,30.48,WSW,249,0.0,0.0,100,0.00,,FEW250,0.00,VWS V14.01,2013-01-10 05:49:00,
2013-01-10 00:54:00,33.3,33.3,30.48,WSW,249,0.0,0.0,100,0.00,,FEW250,0.00,VWS V14.01,2013-01-10 05:54:00,
2013-01-10 00:59:00,33.3,33.3,30.48,WSW,249,0.0,0.0,100,0.00,,FEW250,0.00,VWS V14.01,2013-01-10 05:59:00,
2013-01-10 01:04:00,33.3,33.3,30.48,WSW,249,0.0,0.0,100,0.00,,FEW250,0.00,VWS V14.01,2013-01-10 06:04:00,
2013-01-10 01:09:00,33.3,33.3,30.48,WSW,250,0.0,0.0,100,0.00,,FEW250,0.00,VWS V14.01,2013-01-10 06:09:00,
2013-01-10 01:14:00,33.4,33.4,30.48,WSW,249,0.0,0.0,100,0.00,,FEW250,0.00,VWS V14.01,2013-01-10 06:14:00,
2013-01-10 01:19:00,33.3,33.3,30.48,WSW,249,0.0,0.0,100,0.00,,FEW250,0.00,VWS V14.01,2013-01-10 06:19:00,
2013-01-10 01:24:00,33.1,33.1,30.48,WSW,249,0.0,0.0,100,0.00,,FEW250,0.00,VWS V14.01,2013-01-10 06:24:00,
2013-01-10 01:29:00,33.1,33.1,30.48,WSW,249,0.0,0.0,100,0.00,,FEW250,0.00,VWS V14.01,2013-01-10 06:29:00,
2013-01-10 01:34:00,33.1,33.1,30.48,WSW,249,0.0,0.0,100,0.00,,FEW250,0.00,VWS V14.01,2013-01-10 06:34:00,
2013-01-10 01:39:00,33.1,33.1,30.48,WSW,249,0.0,0.0,100,0.00,,FEW250,0.00,VWS V14.01,2013-01-10 06:39:00,
2013-01-10 01:44:00,32.9,32.9,30.48,WSW,249,0.0,0.0,100,0.00,,FEW250,0.00,VWS V14.01,2013-01-10 06:44:00,
2013-01-10 01:49:00,32.9,32.9,30.48,WSW,249,0.0,0.0,100,0.00,,FEW250,0.00,VWS V14.01,2013-01-10 06:49:00,
2013-01-10 01:55:00,33.1,33.1,30.48,WSW,249,0.0,0.0,100,0.00,,FEW250,0.00,VWS V14.01,2013-01-10 06:55:00,
2013-01-10 02:00:00,33.1,33.1,30.48,WSW,249,0.0,0.0,100,0.00,,FEW250,0.00,VWS V14.01,2013-01-10 07:00:00,
2013-01-10 02:05:00,33.1,33.1,30.48,WSW,247,0.0,0.0,100,0.00,,FEW250,0.00,VWS V14.01,2013-01-10 07:05:00,
2013-01-10 02:10:00,32.9,32.9,30.48,WSW,249,0.0,0.0,100,0.00,,FEW250,0.00,VWS V14.01,2013-01-10 07:10:00,
2013-01-10 02:15:00,32.7,32.7,30.48,WSW,249,0.0,0.0,100,0.00,,FEW250,0.00,VWS V14.01,2013-01-10 07:15:00,
2013-01-10 02:20:00,32.5,32.5,30.48,WSW,249,0.0,0.0,100,0.00,,FEW250,0.00,VWS V14.01,2013-01-10 07:20:00,
2013-01-10 02:25:00,32.2,32.2,30.48,WSW,249,0.0,0.0,100,0.00,,FEW250,0.00,VWS V14.01,2013-01-10 07:25:00,
2013-01-10 02:30:00,32.2,32.2,30.48,WSW,249,0.0,0.0,100,0.00,,FEW250,0.00,VWS V14.01,2013-01-10 07:30:00,
2013-01-10 02:35:00,32.2,32.2,30.48,WSW,249,0.0,0.0,100,0.00,,FEW250,0.00,VWS V14.01,2013-01-10 07:35:00,
2013-01-10 02:40:00,32.4,32.4,30.48,WSW,249,0.0,0.0,100,0.00,,FEW250,0.00,VWS V14.01,2013-01-10 07:40:00,
2013-01-10 02:45:00,32.4,32.4,30.48,WSW,249,0.0,0.0,100,0.00,,FEW250,0.00,VWS V14.01,2013-01-10 07:45:00,
2013-01-10 02:50:00,32.5,32.5,30.48,WSW,245,0.0,0.0,100,0.00,,FEW250,0.00,VWS V14.01,2013-01-10 07:50:00,
2013-01-10 02:55:00,32.5,32.5,30.48,WSW,249,0.0,0.0,100,0.00,,FEW250,0.00,VWS V14.01,2013-01-10 07:55:00,
2013-01-10 03:00:00,32.5,32.5,30.48,WSW,249,0.0,0.0,100,0.00,,FEW250,0.00,VWS V14.01,2013-01-10 08:00:00,
2013-01-10 03:05:00,32.5,32.5,30.48,WSW,249,0.0,0.0,100,0.00,,FEW250,0.00,VWS V14.01,2013-01-10 08:05:00,
2013-01-10 03:10:00,32.5,32.5,30.48,WSW,249,0.0,0.0,100,0.00,,FEW250,0.00,VWS V14.01,2013-01-10 08:10:00,
2013-01-10 03:15:00,32.7,32.7,30.48,WSW,247,0.0,0.0,100,0.00,,FEW250,0.00,VWS V14.01,2013-01-10 08:15:00,
2013-01-10 03:20:00,32.7,32.7,30.48,WSW,250,0.0,0.0,100,0.00,,FEW250,0.00,VWS V14.01,2013-01-10 08:20:00,
2013-01-10 03:26:00,32.9,32.9,30.48,WSW,249,0.0,0.0,100,0.00,,FEW250,0.00,VWS V14.01,2013-01-10 08:26:00,
2013-01-10 03:31:00,33.1,33.1,30.48,WSW,249,0.0,0.0,100,0.00,,FEW250,0.00,VWS V14.01,2013-01-10 08:31:00,
2013-01-10 03:36:00,32.9,32.9,30.48,WSW,248,0.0,0.0,100,0.00,,FEW250,0.00,VWS V14.01,2013-01-10 08:36:00,
2013-01-10 03:41:00,33.1,33.1,30.45,WSW,249,0.0,0.0,100,0.00,,FEW250,0.00,VWS V14.01,2013-01-10 08:41:00,
2013-01-10 03:46:00,32.9,32.9,30.45,WSW,249,0.0,0.0,100,0.00,,FEW250,0.00,VWS V14.01,2013-01-10 08:46:00,
2013-01-10 03:51:00,32.9,32.9,30.45,WSW,249,0.0,0.0,100,0.00,,FEW250,0.00,VWS V14.01,2013-01-10 08:51:00,
2013-01-10 03:56:00,33.1,33.1,30.45,WSW,249,0.0,0.0,100,0.00,,FEW250,0.00,VWS V14.01,2013-01-10 08:56:00,
2013-01-10 04:01:00,33.1,33.1,30.45,WSW,249,0.0,0.0,100,0.00,,FEW250,0.00,VWS V14.01,2013-01-10 09:01:00,
2013-01-10 04:06:00,33.1,33.1,30.45,WSW,249,0.0,0.0,100,0.00,,FEW250,0.00,VWS V14.01,2013-01-10 09:06:00,
2013-01-10 04:11:00,33.1,33.1,30.45,WSW,249,0.0,0.0,100,0.00,,FEW250,0.00,VWS V14.01,2013-01-10 09:11:00,
2013-01-10 04:16:00,33.1,33.1,30.45,WSW,249,0.0,0.0,100,0.00,,FEW250,0.00,VWS V14.01,2013-01-10 09:16:00,
2013-01-10 04:21:00,33.1,33.1,30.45,WSW,249,0.0,0.0,100,0.00,,FEW250,0.00,VWS V14.01,2013-01-10 09:21:00,
2013-01-10 04:26:00,33.3,33.3,30.45,WSW,249,0.0,0.0,100,0.00,,FEW250,0.00,VWS V14.01,2013-01-10 09:26:00,
2013-01-10 04:31:00,33.3,33.3,30.45,WSW,249,0.0,0.0,100,0.00,,FEW250,0.00,VWS V14.01,2013-01-10 09:31:00,
2013-01-10 04:36:00,33.1,33.1,30.45,WSW,249,0.0,0.0,100,0.00,,FEW250,0.00,VWS V14.01,2013-01-10 09:36:00,
2013-01-10 04:41:00,33.1,33.1,30.42,WSW,249,0.0,0.0,100,0.00,,CLR,0.00,VWS V14.01,2013-01-10 09:41:00,
2013-01-10 04:46:00,33.1,33.1,30.42,WSW,249,0.0,0.0,100,0.00,,CLR,0.00,VWS V14.01,2013-01-10 09:46:00,
2013-01-10 04:51:00,33.3,33.3,30.42,WSW,249,0.0,0.0,100,0.00,,CLR,0.00,VWS V14.01,2013-01-10 09:51:00,
2013-01-10 04:57:00,33.4,33.4,30.42,WSW,249,0.0,0.0,100,0.00,,CLR,0.00,VWS V14.01,2013-01-10 09:57:00,
2013-01-10 05:02:00,33.6,33.6,30.42,WSW,249,0.0,0.0,100,0.00,,CLR,0.00,VWS V14.01,2013-01-10 10:02:00,
2013-01-10 05:07:00,33.6,33.6,30.42,WSW,249,0.0,0.0,100,0.00,,CLR,0.00,VWS V14.01,2013-01-10 10:07:00,
2013-01-10 05:12:00,33.8,33.8,30.42,WSW,249,0.0,0.0,100,0.00,,CLR,0.00,VWS V14.01,2013-01-10 10:12:00,
2013-01-10 05:17:00,33.6,33.6,30.42,WSW,249,5.9,7.5,100,0.00,,CLR,0.00,VWS V14.01,2013-01-10 10:17:00,
2013-01-10 05:22:00,33.8,33.8,30.42,WSW,249,5.2,6.6,100,0.00,,CLR,0.00,VWS V14.01,2013-01-10 10:22:00,
2013-01-10 05:27:00,33.6,33.6,30.42,WSW,249,0.0,0.0,100,0.00,,CLR,0.00,VWS V14.01,2013-01-10 10:27:00,
2013-01-10 05:32:00,33.6,33.6,30.42,WSW,249,0.0,6.6,100,0.00,,CLR,0.00,VWS V14.01,2013-01-10 10:32:00,
2013-01-10 05:37:00,33.8,33.8,30.42,WSW,249,4.4,5.6,100,0.00,,,0.00,VWS V14.01,2013-01-10 10:37:00,
2013-01-10 05:42:00,33.8,33.8,30.42,NE,37,0.0,0.0,100,0.00,,,0.00,VWS V14.01,2013-01-10 10:42:00,
2013-01-10 05:47:00,34.0,34.0,30.42,NE,37,0.0,0.0,100,0.00,,,0.00,VWS V14.01,2013-01-10 10:47:00,
2013-01-10 05:52:00,34.0,34.0,30.42,NE,37,0.0,0.0,100,0.00,,,0.00,VWS V14.01,2013-01-10 10:52:00,
2013-01-10 05:57:00,34.2,34.2,30.42,NE,37,0.0,6.6,100,0.00,,,0.00,VWS V14.01,2013-01-10 10:57:00,
2013-01-10 06:02:00,34.3,34.3,30.42,NE,37,3.7,5.6,100,0.00,,,0.00,VWS V14.01,2013-01-10 11:02:00,
2013-01-10 06:07:00,34.3,34.3,30.42,NE,47,6.6,8.5,100,0.00,,,0.00,VWS V14.01,2013-01-10 11:07:00,
2013-01-10 06:13:00,34.5,34.5,30.42,ENE,78,3.7,6.6,100,0.00,,,0.00,VWS V14.01,2013-01-10 11:13:00,
2013-01-10 06:18:00,34.9,34.9,30.42,ENE,76,4.4,11.3,100,0.00,,,0.00,VWS V14.01,2013-01-10 11:18:00,
2013-01-10 06:23:00,35.2,35.2,30.42,ENE,76,5.9,7.5,100,0.00,,,0.00,VWS V14.01,2013-01-10 11:23:00,
2013-01-10 06:28:00,35.8,35.8,30.42,East,100,6.6,12.2,100,0.00,,,0.00,VWS V14.01,2013-01-10 11:28:00,
2013-01-10 06:33:00,36.1,36.1,30.42,ENE,69,8.9,12.2,100,0.00,,,0.00,VWS V14.01,2013-01-10 11:33:00,
2013-01-10 06:38:00,36.3,36.3,30.42,East,83,6.6,15.0,100,0.00,,,0.00,VWS V14.01,2013-01-10 11:38:00,
2013-01-10 06:43:00,36.5,36.5,30.42,ENE,78,6.6,8.5,100,0.00,,,0.00,VWS V14.01,2013-01-10 11:43:00,
2013-01-10 06:48:00,36.5,36.5,30.42,East,81,5.9,7.5,100,0.00,,,0.00,VWS V14.01,2013-01-10 11:48:00,
2013-01-10 06:53:00,36.3,36.3,30.42,East,84,5.2,6.6,100,0.00,,OVC220,0.00,VWS V14.01,2013-01-10 11:53:00,
2013-01-10 06:58:00,36.3,36.3,30.42,East,83,4.4,5.6,100,0.00,,OVC220,0.00,VWS V14.01,2013-01-10 11:58:00,
2013-01-10 07:03:00,36.1,36.1,30.42,East,79,6.6,8.5,100,0.00,,OVC220,0.00,VWS V14.01,2013-01-10 12:03:00,
2013-01-10 07:08:00,36.1,36.1,30.42,NE,48,5.9,10.3,100,0.00,,OVC220,0.00,VWS V14.01,2013-01-10 12:08:00,
2013-01-10 07:13:00,36.1,36.1,30.42,NE,48,5.9,10.3,100,0.00,,OVC220,0.00,VWS V14.01,2013-01-10 12:13:00,
2013-01-10 07:18:00,36.1,36.1,30.42,NE,54,4.4,8.5,100,0.00,,OVC220,0.00,VWS V14.01,2013-01-10 12:18:00,
2013-01-10 07:24:00,36.1,36.1,30.42,NE,46,5.2,11.3,100,0.00,,OVC220,0.00,VWS V14.01,2013-01-10 12:24:00,
2013-01-10 07:29:00,36.1,36.1,30.42,NE,55,5.9,11.3,100,0.00,,OVC220,0.00,VWS V14.01,2013-01-10 12:29:00,
2013-01-10 07:34:00,36.1,36.1,30.42,ENE,67,5.9,8.5,100,0.00,,OVC220,0.00,VWS V14.01,2013-01-10 12:34:00,
2013-01-10 07:39:00,36.0,36.0,30.42,ENE,78,4.4,6.6,100,0.00,,OVC220,0.00,VWS V14.01,2013-01-10 12:39:00,
2013-01-10 07:44:00,36.1,36.1,30.42,NE,45,8.1,10.3,100,0.00,,OVC220,0.00,VWS V14.01,2013-01-10 12:44:00,
2013-01-10 07:49:00,36.1,36.1,30.42,ENE,63,5.9,8.5,100,0.00,,OVC220,0.00,VWS V14.01,2013-01-10 12:49:00,
2013-01-10 07:54:00,36.3,36.3,30.42,ENE,67,5.2,7.5,100,0.00,,OVC220,0.00,VWS V14.01,2013-01-10 12:54:00,
2013-01-10 07:59:00,36.5,36.5,30.39,ENE,67,9.6,12.2,100,0.00,,OVC200,0.00,VWS V14.01,2013-01-10 12:59:00,
2013-01-10 08:04:00,36.7,36.7,30.39,NE,49,5.9,7.5,100,0.00,,OVC200,0.00,VWS V14.01,2013-01-10 13:04:00,
2013-01-10 08:09:00,36.9,36.9,30.39,ENE,73,6.6,8.5,100,0.00,,OVC200,0.00,VWS V14.01,2013-01-10 13:09:00,
2013-01-10 08:14:00,37.0,37.0,30.39,ENE,76,4.4,5.6,100,0.00,,OVC200,0.00,VWS V14.01,2013-01-10 13:14:00,
2013-01-10 08:19:00,37.2,37.2,30.39,ENE,62,5.9,8.5,100,0.00,,OVC200,0.00,VWS V14.01,2013-01-10 13:19:00,
2013-01-10 08:24:00,37.4,37.4,30.39,East,87,4.4,7.5,100,0.00,,OVC200,0.00,VWS V14.01,2013-01-10 13:24:00,
2013-01-10 08:29:00,37.6,37.6,30.39,East,80,5.9,7.5,100,0.00,,OVC200,0.00,VWS V14.01,2013-01-10 13:29:00,
2013-01-10 08:34:00,37.6,37.6,30.39,East,80,6.6,11.3,100,0.00,,OVC200,0.00,VWS V14.01,2013-01-10 13:34:00,
2013-01-10 08:39:00,37.8,37.8,30.39,ENE,69,10.3,13.2,100,0.00,,OVC200,0.00,VWS V14.01,2013-01-10 13:39:00,
2013-01-10 08:44:00,37.9,37.9,30.39,NE,44,8.9,12.2,100,0.00,,OVC180,0.00,VWS V14.01,2013-01-10 13:44:00,
2013-01-10 08:50:00,38.1,38.1,30.39,ENE,71,5.9,13.2,100,0.00,,OVC180,0.00,VWS V14.01,2013-01-10 13:50:00,
2013-01-10 08:55:00,38.1,38.1,30.39,ENE,67,8.1,12.2,100,0.00,,OVC180,0.00,VWS V14.01,2013-01-10 13:55:00,
2013-01-10 09:00:00,38.1,38.1,30.39,East,86,8.1,12.2,100,0.00,,OVC180,0.00,VWS V14.01,2013-01-10 14:00:00,
2013-01-10 09:05:00,38.1,38.1,30.39,NE,42,12.5,16.0,100,0.00,,OVC180,0.00,VWS V14.01,2013-01-10 14:05:00,
2013-01-10 09:10:00,38.1,38.1,30.39,ENE,69,5.9,8.5,100,0.00,,OVC180,0.00,VWS V14.01,2013-01-10 14:10:00,
2013-01-10 09:15:00,38.3,38.3,30.39,East,97,8.1,13.2,100,0.00,,OVC180,0.00,VWS V14.01,2013-01-10 14:15:00,
2013-01-10 09:20:00,38.3,38.3,30.39,East,80,8.9,11.3,100,0.00,,OVC180,0.00,VWS V14.01,2013-01-10 14:20:00,
2013-01-10 09:25:00,38.3,38.3,30.39,ESE,119,5.9,11.3,100,0.00,,OVC180,0.00,VWS V14.01,2013-01-10 14:25:00,
2013-01-10 09:30:00,38.3,38.3,30.39,ESE,121,0.0,5.6,100,0.00,,OVC180,0.00,VWS V14.01,2013-01-10 14:30:00,
2013-01-10 09:35:00,38.5,38.5,30.39,East,91,6.6,8.5,100,0.00,,OVC160,0.00,VWS V14.01,2013-01-10 14:35:00,
2013-01-10 09:40:00,38.5,38.5,30.39,ENE,78,9.6,12.2,100,0.00,,OVC160,0.00,VWS V14.01,2013-01-10 14:40:00,
2013-01-10 09:45:00,38.5,38.5,30.39,East,96,5.9,13.2,100,0.00,,OVC160,0.00,VWS V14.01,2013-01-10 14:45:00,
2013-01-10 09:50:00,38.3,38.3,30.39,East,95,0.0,5.6,100,0.00,,OVC160,0.00,VWS V14.01,2013-01-10 14:50:00,
2013-01-10 09:55:00,38.1,38.1,30.39,East,100,4.4,7.5,100,0.00,,OVC160,0.00,VWS V14.01,2013-01-10 14:55:00,
2013-01-10 10:00:00,38.1,38.1,30.39,East,90,5.9,7.5,100,0.00,,OVC160,0.00,VWS V14.01,2013-01-10 15:00:00,
2013-01-10 10:05:00,38.1,38.1,30.39,ENE,62,4.4,5.6,100,0.00,,OVC160,0.00,VWS V14.01,2013-01-10 15:05:00,
2013-01-10 10:11:00,37.9,37.9,30.39,ENE,66,5.9,10.3,100,0.00,,OVC160,0.00,VWS V14.01,2013-01-10 15:11:00,
2013-01-10 10:16:00,37.9,37.9,30.39,ENE,66,3.7,5.6,100,0.00,,OVC160,0.00,VWS V14.01,2013-01-10 15:16:00,
2013-01-10 10:21:00,37.8,37.8,30.39,ENE,61,5.2,8.5,100,0.00,,OVC160,0.00,VWS V14.01,2013-01-10 15:21:00,
2013-01-10 10:26:00,37.8,37.8,30.36,NE,47,5.9,7.5,100,0.00,,OVC160,0.00,VWS V14.01,2013-01-10 15:26:00,
2013-01-10 10:31:00,37.6,37.6,30.36,NE,49,5.9,8.5,100,0.00,,OVC160,0.00,VWS V14.01,2013-01-10 15:31:00,
2013-01-10 10:36:00,37.6,37.6,30.36,ENE,62,5.9,7.5,100,0.00,,OVC130,0.00,VWS V14.01,2013-01-10 15:36:00,
2013-01-10 10:41:00,37.6,37.6,30.39,NE,46,8.9,11.3,100,0.00,,OVC130,0.00,VWS V14.01,2013-01-10 15:41:00,
2013-01-10 10:46:00,37.8,37.8,30.39,NE,46,6.6,8.5,100,0.00,,OVC130,0.00,VWS V14.01,2013-01-10 15:46:00,
2013-01-10 10:51:00,37.8,37.8,30.39,NE,46,4.4,5.6,100,0.00,,OVC130,0.00,VWS V14.01,2013-01-10 15:51:00,
2013-01-10 10:56:00,37.9,37.9,30.36,NE,46,4.4,7.5,100,0.00,,OVC130,0.00,VWS V14.01,2013-01-10 15:56:00,
2013-01-10 11:01:00,37.9,37.9,30.36,NE,46,4.4,7.5,100,0.00,,OVC130,0.00,VWS V14.01,2013-01-10 16:01:00,
2013-01-10 11:06:00,38.1,38.1,30.36,NE,45,4.4,7.5,100,0.00,,OVC130,0.00,VWS V14.01,2013-01-10 16:06:00,
2013-01-10 11:11:00,38.1,38.1,30.36,NE,45,5.2,8.5,100,0.00,,OVC130,0.00,VWS V14.01,2013-01-10 16:11:00,
2013-01-10 11:16:00,38.1,38.1,30.36,NE,46,0.0,0.0,100,0.00,,OVC130,0.00,VWS V14.01,2013-01-10 16:16:00,
2013-01-10 11:21:00,38.1,38.1,30.36,NE,45,4.4,7.5,100,0.00,,OVC130,0.00,VWS V14.01,2013-01-10 16:21:00,
2013-01-10 11:26:00,38.3,38.3,30.36,NE,45,6.6,8.5,100,0.00,,OVC130,0.00,VWS V14.01,2013-01-10 16:26:00,
2013-01-10 11:31:00,38.5,38.5,30.36,NE,45,6.6,8.5,100,0.00,,OVC130,0.00,VWS V14.01,2013-01-10 16:31:00,
2013-01-10 11:36:00,38.5,38.5,30.36,NE,46,5.2,10.3,100,0.00,,OVC130,0.00,VWS V14.01,2013-01-10 16:36:00,
2013-01-10 11:41:00,38.7,38.7,30.36,ENE,64,5.9,8.5,100,0.00,,OVC110,0.00,VWS V14.01,2013-01-10 16:41:00,
2013-01-10 11:47:00,38.7,38.7,30.36,ENE,58,8.1,10.3,100,0.00,,OVC110,0.00,VWS V14.01,2013-01-10 16:47:00,
2013-01-10 11:52:00,38.7,38.7,30.36,NE,45,5.2,12.2,100,0.00,,OVC110,0.00,VWS V14.01,2013-01-10 16:52:00,
2013-01-10 11:57:00,38.7,38.7,30.33,East,80,5.2,8.5,100,0.04,,OVC110,0.04,VWS V14.01,2013-01-10 16:57:00,
2013-01-10 12:02:00,38.7,38.7,30.33,NE,34,8.9,12.2,100,0.04,,OVC110,0.04,VWS V14.01,2013-01-10 17:02:00,
2013-01-10 12:07:00,38.7,38.7,30.33,NE,54,9.6,13.2,100,0.04,,OVC110,0.04,VWS V14.01,2013-01-10 17:07:00,
2013-01-10 12:12:00,38.8,38.8,30.33,NE,45,9.6,12.2,100,0.04,,OVC110,0.04,VWS V14.01,2013-01-10 17:12:00,
2013-01-10 12:17:00,38.8,38.8,30.33,NE,54,6.6,10.3,100,0.04,,OVC110,0.04,VWS V14.01,2013-01-10 17:17:00,
2013-01-10 12:22:00,38.8,38.8,30.33,ENE,63,7.4,12.2,100,0.04,,OVC110,0.04,VWS V14.01,2013-01-10 17:22:00,
2013-01-10 12:27:00,38.8,38.8,30.30,ENE,59,5.9,12.2,100,0.04,,OVC110,0.04,VWS V14.01,2013-01-10 17:27:00,
2013-01-10 12:32:00,39.0,39.0,30.30,ENE,76,6.6,10.3,100,0.04,,OVC110,0.04,VWS V14.01,2013-01-10 17:32:00,
2013-01-10 12:38:00,39.2,39.2,30.30,ENE,58,13.3,16.9,100,0.04,,OVC110,0.04,VWS V14.01,2013-01-10 17:38:00,
2013-01-10 12:43:00,39.2,39.2,30.30,East,93,10.3,13.2,100,0.04,,OVC110,0.04,VWS V14.01,2013-01-10 17:43:00,
2013-01-10 12:48:00,39.2,39.2,30.30,ENE,63,8.1,10.3,100,0.04,,OVC110,0.04,VWS V14.01,2013-01-10 17:48:00,
2013-01-10 12:53:00,39.4,39.4,30.30,East,95,9.6,12.2,100,0.04,,OVC110,0.04,VWS V14.01,2013-01-10 17:53:00,
2013-01-10 12:58:00,39.4,39.4,30.30,NE,52,9.6,12.2,100,0.00,,OVC110,0.04,VWS V14.01,2013-01-10 17:58:00,
2013-01-10 13:03:00,39.4,39.4,30.30,ENE,65,10.3,13.2,100,0.00,,OVC110,0.04,VWS V14.01,2013-01-10 18:03:00,
2013-01-10 13:08:00,39.4,39.4,30.30,NE,39,9.6,13.2,100,0.00,,OVC110,0.04,VWS V14.01,2013-01-10 18:08:00,
2013-01-10 13:13:00,39.6,39.6,30.27,ENE,65,6.6,8.5,100,0.00,,OVC110,0.04,VWS V14.01,2013-01-10 18:13:00,
2013-01-10 13:18:00,39.6,39.6,30.27,NE,52,8.1,13.2,100,0.00,,OVC110,0.04,VWS V14.01,2013-01-10 18:18:00,
2013-01-10 13:23:00,39.6,39.6,30.27,ENE,76,8.1,12.2,100,0.04,,OVC110,0.08,VWS V14.01,2013-01-10 18:23:00,
2013-01-10 13:28:00,39.6,39.6,30.27,NE,39,6.6,8.5,100,0.04,,OVC110,0.08,VWS V14.01,2013-01-10 18:28:00,
2013-01-10 13:33:00,39.6,39.6,30.27,ENE,78,5.9,11.3,100,0.04,,OVC110,0.08,VWS V14.01,2013-01-10 18:33:00,
2013-01-10 13:39:00,39.6,39.6,30.27,ENE,76,8.1,10.3,100,0.08,,-RA,0.12,VWS V14.01,2013-01-10 18:39:00,
2013-01-10 13:44:00,39.6,39.6,30.27,ENE,59,8.9,12.2,100,0.08,,-RA,0.12,VWS V14.01,2013-01-10 18:44:00,
2013-01-10 13:49:00,39.7,39.7,30.27,NE,48,6.6,13.2,100,0.12,,-RA,0.16,VWS V14.01,2013-01-10 18:49:00,
2013-01-10 13:54:00,39.6,39.6,30.27,East,85,5.9,11.3,100,0.16,,-RA,0.20,VWS V14.01,2013-01-10 18:54:00,
2013-01-10 13:59:00,39.6,39.6,30.24,ENE,70,8.1,10.3,100,0.20,,-RA,0.24,VWS V14.01,2013-01-10 18:59:00,
2013-01-10 14:04:00,39.6,39.6,30.24,East,88,4.4,11.3,100,0.20,,-RA,0.24,VWS V14.01,2013-01-10 19:04:00,
2013-01-10 14:09:00,39.6,39.6,30.24,ENE,77,10.3,14.1,100,0.24,,-RA,0.28,VWS V14.01,2013-01-10 19:09:00,
2013-01-10 14:14:00,39.6,39.6,30.24,East,85,5.9,13.2,100,0.24,,-RA,0.28,VWS V14.01,2013-01-10 19:14:00,
2013-01-10 14:19:00,39.6,39.6,30.24,ENE,68,8.9,12.2,100,0.24,,-RA,0.28,VWS V14.01,2013-01-10 19:19:00,
2013-01-10 14:24:00,39.6,39.6,30.24,ENE,72,9.6,13.2,100,0.20,,-RA,0.28,VWS V14.01,2013-01-10 19:24:00,
2013-01-10 14:29:00,39.7,39.7,30.24,NE,51,6.6,8.5,100,0.20,,-RA,0.28,VWS V14.01,2013-01-10 19:29:00,
2013-01-10 14:34:00,39.9,39.9,30.24,ESE,111,5.9,11.3,100,0.20,,-RA,0.28,VWS V14.01,2013-01-10 19:34:00,
2013-01-10 14:39:00,39.9,39.9,30.24,East,86,9.6,12.2,100,0.16,,-RA,0.28,VWS V14.01,2013-01-10 19:39:00,
2013-01-10 14:44:00,40.3,40.3,30.22,East,95,6.6,12.2,100,0.16,,-RA,0.28,VWS V14.01,2013-01-10 19:44:00,
2013-01-10 14:49:00,40.5,40.5,30.22,ESE,102,5.2,8.5,100,0.12,,-RA,0.28,VWS V14.01,2013-01-10 19:49:00,
2013-01-10 14:54:00,40.8,40.8,30.22,East,92,6.6,11.3,100,0.08,,-RA,0.28,VWS V14.01,2013-01-10 19:54:00,
2013-01-10 15:00:00,41.0,41.0,30.22,NNE,27,6.6,8.5,100,0.04,,-RA,0.28,VWS V14.01,2013-01-10 20:00:00,
2013-01-10 15:05:00,41.0,41.0,30.22,ENE,72,5.9,8.5,100,0.04,,-RA,0.28,VWS V14.01,2013-01-10 20:05:00,
2013-01-10 15:10:00,41.2,41.2,30.22,ENE,76,0.0,4.7,100,0.00,,-RA,0.28,VWS V14.01,2013-01-10 20:10:00,
2013-01-10 15:15:00,41.5,41.5,30.22,East,87,5.9,9.4,100,0.00,,-RA,0.28,VWS V14.01,2013-01-10 20:15:00,
2013-01-10 15:20:00,41.5,41.5,30.22,ENE,77,6.6,8.5,100,0.00,,-RA,0.28,VWS V14.01,2013-01-10 20:20:00,
2013-01-10 15:25:00,41.7,41.7,30.22,ENE,70,6.6,8.5,100,0.00,,-RA,0.28,VWS V14.01,2013-01-10 20:25:00,
2013-01-10 15:30:00,41.9,41.9,30.22,ESE,109,5.2,10.3,100,0.00,,-RA,0.28,VWS V14.01,2013-01-10 20:30:00,
2013-01-10 15:35:00,42.1,42.1,30.22,SE,130,5.9,12.2,100,0.00,,OVC085,0.28,VWS V14.01,2013-01-10 20:35:00,
2013-01-10 15:41:00,42.1,42.1,30.22,East,94,5.9,7.5,100,0.00,,OVC085,0.28,VWS V14.01,2013-01-10 20:41:00,
2013-01-10 15:46:00,42.1,42.1,30.22,ENE,71,3.7,5.6,100,0.00,,OVC085,0.28,VWS V14.01,2013-01-10 20:46:00,
2013-01-10 15:51:00,42.3,42.3,30.22,East,87,0.0,5.6,100,0.00,,OVC085,0.28,VWS V14.01,2013-01-10 20:51:00,
2013-01-10 15:56:00,42.3,42.3,30.22,ENE,77,5.2,7.5,100,0.00,,OVC085,0.28,VWS V14.01,2013-01-10 20:56:00,
2013-01-10 16:01:00,42.4,42.4,30.22,ENE,77,6.6,8.5,100,0.00,,OVC085,0.28,VWS V14.01,2013-01-10 21:01:00,
2013-01-10 16:06:00,42.6,42.6,30.22,SE,136,8.9,11.3,100,0.00,,OVC085,0.28,VWS V14.01,2013-01-10 21:06:00,
2013-01-10 16:11:00,42.8,42.8,30.19,East,90,4.4,7.5,100,0.00,,OVC085,0.28,VWS V14.01,2013-01-10 21:11:00,
2013-01-10 16:16:00,42.8,42.8,30.19,ENE,58,6.6,10.3,100,0.00,,OVC085,0.28,VWS V14.01,2013-01-10 21:16:00,
2013-01-10 16:21:00,43.0,43.0,30.19,ESE,117,6.6,10.3,100,0.00,,OVC085,0.28,VWS V14.01,2013-01-10 21:21:00,
2013-01-10 16:26:00,43.0,43.0,30.19,ESE,120,5.9,10.3,100,0.00,,OVC085,0.28,VWS V14.01,2013-01-10 21:26:00,
2013-01-10 16:31:00,43.0,43.0,30.19,ESE,119,8.1,12.2,100,0.00,,OVC085,0.28,VWS V14.01,2013-01-10 21:31:00,
2013-01-10 16:36:00,43.2,43.2,30.19,SE,131,9.6,12.2,100,0.00,,OVC085,0.28,VWS V14.01,2013-01-10 21:36:00,
2013-01-10 16:41:00,43.2,43.2,30.19,East,101,5.2,8.5,100,0.00,,RA,0.28,VWS V14.01,2013-01-10 21:41:00,
2013-01-10 16:46:00,43.2,43.2,30.19,ESE,107,5.9,7.5,100,0.08,,RA,0.35,VWS V14.01,2013-01-10 21:46:00,
2013-01-10 16:51:00,43.3,43.3,30.19,ESE,105,5.9,7.5,100,0.08,,-RA,0.35,VWS V14.01,2013-01-10 21:51:00,
2013-01-10 16:57:00,43.3,43.3,30.19,ESE,108,5.9,11.3,100,0.08,,-RA,0.35,VWS V14.01,2013-01-10 21:57:00,
2013-01-10 17:02:00,43.3,43.3,30.19,East,79,6.6,8.5,100,0.08,,-RA,0.35,VWS V14.01,2013-01-10 22:02:00,
2013-01-10 17:07:00,43.3,43.3,30.19,ENE,76,5.2,6.6,100,0.08,,-RA,0.35,VWS V14.01,2013-01-10 22:07:00,
2013-01-10 17:12:00,43.3,43.3,30.19,East,88,3.7,4.7,100,0.08,,-RA,0.35,VWS V14.01,2013-01-10 22:12:00,
2013-01-10 17:17:00,43.3,43.3,30.19,East,89,5.9,7.5,100,0.08,,-RA,0.35,VWS V14.01,2013-01-10 22:17:00,
2013-01-10 17:22:00,43.3,43.3,30.19,East,86,4.4,7.5,100,0.08,,-RA,0.35,VWS V14.01,2013-01-10 22:22:00,
2013-01-10 17:27:00,43.3,43.3,30.16,ESE,107,5.2,8.5,100,0.08,,-RA,0.35,VWS V14.01,2013-01-10 22:27:00,
2013-01-10 17:32:00,43.3,43.3,30.16,ESE,106,5.2,6.6,100,0.08,,-RA,0.35,VWS V14.01,2013-01-10 22:32:00,
2013-01-10 17:37:00,43.3,43.3,30.16,East,87,0.0,0.0,100,0.08,,-RA,0.35,VWS V14.01,2013-01-10 22:37:00,
2013-01-10 17:43:00,43.2,43.2,30.16,East,87,0.0,4.7,100,0.08,,-RA,0.35,VWS V14.01,2013-01-10 22:43:00,
2013-01-10 17:48:00,43.2,43.2,30.16,East,87,4.4,6.6,100,0.00,,-RA,0.35,VWS V14.01,2013-01-10 22:48:00,
2013-01-10 17:53:00,43.0,43.0,30.16,East,87,0.0,0.0,100,0.00,,-RA,0.35,VWS V14.01,2013-01-10 22:53:00,
2013-01-10 17:58:00,43.0,43.0,30.16,East,87,0.0,0.0,100,0.00,,-RA,0.35,VWS V14.01,2013-01-10 22:58:00,
2013-01-10 18:03:00,43.0,43.0,30.16,East,87,4.4,6.6,100,0.00,,-RA,0.35,VWS V14.01,2013-01-10 23:03:00,
2013-01-10 18:08:00,42.8,42.8,30.16,East,87,0.0,0.0,100,0.00,,-RA,0.35,VWS V14.01,2013-01-10 23:08:00,
2013-01-10 18:13:00,42.8,42.8,30.16,East,87,0.0,0.0,100,0.00,,-RA,0.35,VWS V14.01,2013-01-10 23:13:00,
2013-01-10 18:18:00,42.8,42.8,30.16,East,87,0.0,0.0,100,0.00,,-RA,0.35,VWS V14.01,2013-01-10 23:18:00,
2013-01-10 18:23:00,42.8,42.8,30.16,East,87,0.0,5.6,100,0.00,,-RA,0.35,VWS V14.01,2013-01-10 23:23:00,
2013-01-10 18:28:00,43.0,43.0,30.13,East,87,4.4,5.6,100,0.00,,-RA,0.35,VWS V14.01,2013-01-10 23:28:00,
2013-01-10 18:33:00,43.0,43.0,30.13,East,88,0.0,0.0,100,0.00,,-RA,0.35,VWS V14.01,2013-01-10 23:33:00,
2013-01-10 18:38:00,43.0,43.0,30.13,East,87,0.0,0.0,100,0.00,,-RA,0.35,VWS V14.01,2013-01-10 23:38:00,
2013-01-10 18:43:00,43.2,43.2,30.13,East,87,0.0,0.0,100,0.00,,-RA,0.35,VWS V14.01,2013-01-10 23:43:00,
2013-01-10 18:48:00,43.2,43.2,30.13,East,87,0.0,0.0,100,0.00,,-RA,0.35,VWS V14.01,2013-01-10 23:48:00,
2013-01-10 18:53:00,43.3,43.3,30.13,East,87,0.0,0.0,100,0.00,,-RA,0.35,VWS V14.01,2013-01-10 23:53:00,
2013-01-10 18:58:00,43.3,43.3,30.13,East,87,0.0,0.0,100,0.00,,-RA,0.35,VWS V14.01,2013-01-10 23:58:00,
2013-01-10 19:03:00,43.3,43.3,30.13,East,87,0.0,5.6,100,0.00,,-RA,0.35,VWS V14.01,2013-01-11 00:03:00,
2013-01-10 19:09:00,43.3,43.3,30.13,East,87,0.0,0.0,100,0.00,,OVC010,0.35,VWS V14.01,2013-01-11 00:09:00,
2013-01-10 19:14:00,43.3,43.3,30.13,East,87,0.0,0.0,100,0.00,,OVC010,0.35,VWS V14.01,2013-01-11 00:14:00,
2013-01-10 19:19:00,43.5,43.5,30.13,East,87,0.0,0.0,100,0.00,,OVC010,0.35,VWS V14.01,2013-01-11 00:19:00,
2013-01-10 19:24:00,43.5,43.5,30.13,East,87,0.0,0.0,100,0.00,,OVC010,0.35,VWS V14.01,2013-01-11 00:24:00,
2013-01-10 19:29:00,43.5,43.5,30.10,East,87,0.0,0.0,100,0.00,,OVC010,0.35,VWS V14.01,2013-01-11 00:29:00,
2013-01-10 19:34:00,43.7,43.7,30.10,East,87,0.0,0.0,100,0.00,,OVC010,0.35,VWS V14.01,2013-01-11 00:34:00,
2013-01-10 19:39:00,43.7,43.7,30.10,East,85,0.0,0.0,100,0.00,,OVC010,0.35,VWS V14.01,2013-01-11 00:39:00,
2013-01-10 19:45:00,43.7,43.7,30.10,East,87,0.0,0.0,100,0.00,,OVC010,0.35,VWS V14.01,2013-01-11 00:45:00,
2013-01-10 19:50:00,43.7,43.7,30.10,East,87,0.0,0.0,100,0.00,,OVC010,0.35,VWS V14.01,2013-01-11 00:50:00,
2013-01-10 19:55:00,43.7,43.7,30.10,East,87,0.0,0.0,100,0.00,,OVC008,0.35,VWS V14.01,2013-01-11 00:55:00,
2013-01-10 20:00:00,43.7,43.7,30.10,East,87,0.0,0.0,100,0.00,,OVC008,0.35,VWS V14.01,2013-01-11 01:00:00,
2013-01-10 20:05:00,43.5,43.5,30.10,East,85,0.0,0.0,100,0.00,,OVC008,0.35,VWS V14.01,2013-01-11 01:05:00,
2013-01-10 20:10:00,43.5,43.5,30.10,East,88,0.0,0.0,100,0.00,,OVC008,0.35,VWS V14.01,2013-01-11 01:10:00,
2013-01-10 20:15:00,43.5,43.5,30.10,East,87,0.0,0.0,100,0.00,,OVC008,0.35,VWS V14.01,2013-01-11 01:15:00,
2013-01-10 20:20:00,43.7,43.7,30.10,East,87,0.0,0.0,100,0.00,,OVC008,0.35,VWS V14.01,2013-01-11 01:20:00,
2013-01-10 20:26:00,43.9,43.9,30.07,East,87,0.0,0.0,100,0.00,,OVC008,0.35,VWS V14.01,2013-01-11 01:26:00,
2013-01-10 20:31:00,44.1,44.1,30.07,East,87,0.0,6.6,100,0.00,,OVC008,0.35,VWS V14.01,2013-01-11 01:31:00,
2013-01-10 20:36:00,44.2,44.2,30.07,East,87,5.9,7.5,100,0.00,,OVC008,0.35,VWS V14.01,2013-01-11 01:36:00,
2013-01-10 20:41:00,44.6,44.6,30.07,East,87,0.0,0.0,100,0.00,,OVC008,0.35,VWS V14.01,2013-01-11 01:41:00,
2013-01-10 20:46:00,45.3,45.3,30.07,East,87,3.7,4.7,100,0.00,,OVC008,0.35,VWS V14.01,2013-01-11 01:46:00,
2013-01-10 20:51:00,45.7,45.7,30.07,East,87,0.0,0.0,100,0.00,,OVC008,0.35,VWS V14.01,2013-01-11 01:51:00,
2013-01-10 20:56:00,45.9,45.9,30.07,East,87,4.4,6.6,100,0.00,,OVC008,0.35,VWS V14.01,2013-01-11 01:56:00,
2013-01-10 21:02:00,45.9,45.9,30.07,East,87,0.0,0.0,100,0.00,,OVC008,0.35,VWS V14.01,2013-01-11 02:02:00,
2013-01-10 21:07:00,45.7,45.7,30.07,East,87,0.0,0.0,100,0.00,,OVC008,0.35,VWS V14.01,2013-01-11 02:07:00,
2013-01-10 21:12:00,45.7,45.7,30.07,ESE,122,0.0,0.0,100,0.00,,OVC008,0.35,VWS V14.01,2013-01-11 02:12:00,
2013-01-10 21:17:00,45.5,45.5,30.07,ESE,122,0.0,0.0,100,0.00,,OVC008,0.35,VWS V14.01,2013-01-11 02:17:00,
2013-01-10 21:22:00,44.8,44.8,30.07,ESE,122,0.0,0.0,100,0.00,,OVC008,0.35,VWS V14.01,2013-01-11 02:22:00,
2013-01-10 21:27:00,44.6,44.6,30.07,ESE,123,0.0,0.0,100,0.00,,OVC008,0.35,VWS V14.01,2013-01-11 02:27:00,
2013-01-10 21:32:00,44.4,44.4,30.07,ESE,122,0.0,0.0,100,0.00,,OVC008,0.35,VWS V14.01,2013-01-11 02:32:00,
2013-01-10 21:37:00,44.2,44.2,30.07,ESE,122,0.0,0.0,100,0.00,,OVC180,0.35,VWS V14.01,2013-01-11 02:37:00,
2013-01-10 21:43:00,44.4,44.4,30.07,ESE,122,0.0,0.0,100,0.00,,OVC180,0.35,VWS V14.01,2013-01-11 02:43:00,
2013-01-10 21:48:00,44.4,44.4,30.07,ESE,122,0.0,0.0,100,0.00,,OVC180,0.35,VWS V14.01,2013-01-11 02:48:00,
2013-01-10 21:53:00,44.4,44.4,30.07,ESE,122,0.0,0.0,100,0.00,,OVC180,0.35,VWS V14.01,2013-01-11 02:53:00,
2013-01-10 21:58:00,44.6,44.6,30.07,ESE,122,0.0,0.0,100,0.00,,OVC180,0.35,VWS V14.01,2013-01-11 02:58:00,
2013-01-10 22:03:00,44.6,44.6,30.07,ESE,122,0.0,0.0,100,0.00,,OVC180,0.35,VWS V14.01,2013-01-11 03:03:00,
2013-01-10 22:08:00,44.6,44.6,30.07,ESE,122,0.0,0.0,100,0.00,,OVC180,0.35,VWS V14.01,2013-01-11 03:08:00,
2013-01-10 22:13:00,44.6,44.6,30.04,ESE,122,0.0,0.0,100,0.00,,OVC180,0.35,VWS V14.01,2013-01-11 03:13:00,
2013-01-10 22:18:00,44.6,44.6,30.04,ESE,122,0.0,0.0,100,0.00,,OVC180,0.35,VWS V14.01,2013-01-11 03:18:00,
2013-01-10 22:23:00,44.8,44.8,30.04,ESE,122,0.0,0.0,100,0.00,,OVC180,0.35,VWS V14.01,2013-01-11 03:23:00,
2013-01-10 22:28:00,44.8,44.8,30.04,ESE,122,0.0,0.0,100,0.00,,OVC180,0.35,VWS V14.01,2013-01-11 03:28:00,
2013-01-10 22:33:00,45.0,45.0,30.04,ESE,122,0.0,0.0,100,0.00,,OVC180,0.35,VWS V14.01,2013-01-11 03:33:00,
2013-01-10 22:39:00,45.1,45.1,30.04,ESE,122,0.0,0.0,100,0.00,,OVC180,0.35,VWS V14.01,2013-01-11 03:39:00,
2013-01-10 22:44:00,45.1,45.1,30.01,ESE,122,0.0,0.0,100,0.00,,OVC180,0.35,VWS V14.01,2013-01-11 03:44:00,
2013-01-10 22:49:00,45.1,45.1,30.01,ESE,122,0.0,0.0,100,0.00,,OVC180,0.35,VWS V14.01,2013-01-11 03:49:00,
2013-01-10 22:54:00,45.3,45.3,30.01,ESE,122,0.0,0.0,100,0.00,,OVC180,0.35,VWS V14.01,2013-01-11 03:54:00,
2013-01-10 22:59:00,45.3,45.3,30.01,ESE,122,0.0,4.7,100,0.00,,OVC180,0.35,VWS V14.01,2013-01-11 03:59:00,
2013-01-10 23:04:00,45.5,45.5,30.01,ESE,123,0.0,0.0,100,0.00,,OVC180,0.35,VWS V14.01,2013-01-11 04:04:00,
2013-01-10 23:09:00,45.5,45.5,30.01,ESE,122,0.0,0.0,100,0.00,,OVC180,0.35,VWS V14.01,2013-01-11 04:09:00,
2013-01-10 23:14:00,45.9,45.9,30.01,ESE,122,4.4,5.6,100,0.00,,OVC180,0.35,VWS V14.01,2013-01-11 04:14:00,
2013-01-10 23:20:00,46.2,46.2,30.01,ESE,122,0.0,0.0,100,0.00,,OVC180,0.35,VWS V14.01,2013-01-11 04:20:00,
2013-01-10 23:25:00,46.4,46.4,30.01,ESE,122,0.0,0.0,100,0.00,,OVC180,0.35,VWS V14.01,2013-01-11 04:25:00,
2013-01-10 23:30:00,46.4,46.4,30.01,ESE,122,0.0,0.0,100,0.00,,OVC180,0.35,VWS V14.01,2013-01-11 04:30:00,
2013-01-10 23:35:00,46.2,46.2,30.01,ESE,122,0.0,0.0,100,0.00,,OVC180,0.35,VWS V14.01,2013-01-11 04:35:00,
2013-01-10 23:40:00,45.9,45.9,30.01,ESE,122,0.0,0.0,100,0.00,,OVC180,0.35,VWS V14.01,2013-01-11 04:40:00,
2013-01-10 23:45:00,45.7,45.7,30.01,ESE,122,0.0,0.0,100,0.00,,OVC110,0.35,VWS V14.01,2013-01-11 04:45:00,
2013-01-10 23:50:00,45.5,45.5,30.01,ESE,122,0.0,0.0,100,0.00,,OVC110,0.35,VWS V14.01,2013-01-11 04:50:00,
2013-01-10 23:55:00,45.3,45.3,30.01,ESE,122,0.0,0.0,100,0.00,,OVC120,0.35,VWS V14.01,2013-01-11 04:55:00,